• In Hungary
  • List of Countries
  • For 7 days
  • Water Temperature
  • Satellite Maps
  • Weather Map
  • News
  • Weather Widgets
  • user-avatar
    Login

    Hourly Weather Sakkhar

    Today, 20 September, Wednesday

    Time Temperature Precipitation Wind Pressure Humidity
    00:00 +34°C° 0 mm 1 mps 746 mmHg 12%
    01:00 +34°C° 0 mm 2 mps 746 mmHg 12%
    02:00 +34°C° 0 mm 2 mps 746 mmHg 13%
    03:00 +32°C° 0 mm 2 mps 746 mmHg 13%
    04:00 +32°C° 0 mm 1 mps 746 mmHg 13%
    05:00 +31°C° 0 mm 1 mps 746 mmHg 11%
    06:00 +33°C° 0 mm 1 mps 746 mmHg 10%
    07:00 +35°C° 0 mm 2 mps 746 mmHg 9%
    08:00 +37°C° 0 mm 2 mps 746 mmHg 9%
    09:00 +39°C° 0 mm 2 mps 746 mmHg 8%
    10:00 +41°C° 0 mm 2 mps 746 mmHg 8%
    11:00 +45°C° 0 mm 2 mps 746 mmHg 6%
    12:00 +45°C° 0 mm 2 mps 746 mmHg 6%
    13:00 +46°C° 0 mm 2 mps 745 mmHg 6%
    14:00 +46°C° 0 mm 2 mps 745 mmHg 5%
    15:00 +46°C° 0 mm 2 mps 744 mmHg 5%
    16:00 +46°C° 0 mm 2 mps 744 mmHg 5%
    17:00 +46°C° 0 mm 2 mps 743 mmHg 6%
    18:00 +42°C° 0 mm 2 mps 744 mmHg 6%
    19:00 +40°C° 0 mm 2 mps 744 mmHg 7%
    20:00 +38°C° 0 mm 2 mps 744 mmHg 8%
    21:00 +36°C° 0 mm 1 mps 744 mmHg 8%
    22:00 +35°C° 0 mm 1 mps 744 mmHg 8%
    23:00 +35°C° 0 mm 1 mps 744 mmHg 8%

    Tomorrow, 21 September, Thursday

    Time Temperature Precipitation Wind Pressure Humidity
    00:00 +34°C° 0 mm 1 mps 744 mmHg 8%
    01:00 +34°C° 0 mm 1 mps 744 mmHg 9%
    02:00 +33°C° 0 mm 1 mps 744 mmHg 9%
    03:00 +33°C° 0 mm 1 mps 744 mmHg 10%
    04:00 +34°C° 0 mm 2 mps 744 mmHg 10%
    05:00 +32°C° 0 mm 2 mps 744 mmHg 10%
    06:00 +35°C° 0 mm 2 mps 744 mmHg 9%
    07:00 +35°C° 0 mm 1 mps 745 mmHg 8%
    08:00 +36°C° 0 mm 1 mps 745 mmHg 8%
    09:00 +40°C° 0 mm 1 mps 745 mmHg 7%
    10:00 +42°C° 0 mm 1 mps 745 mmHg 7%
    11:00 +44°C° 0 mm 1 mps 745 mmHg 7%
    12:00 +45°C° 0 mm 1 mps 745 mmHg 7%
    13:00 +46°C° 0 mm 2 mps 744 mmHg 7%
    14:00 +47°C° 0 mm 2 mps 743 mmHg 7%
    15:00 +47°C° 0 mm 2 mps 743 mmHg 7%
    16:00 +47°C° 0 mm 3 mps 743 mmHg 8%
    17:00 +47°C° 0 mm 3 mps 743 mmHg 8%
    18:00 +45°C° 0 mm 3 mps 743 mmHg 9%
    19:00 +42°C° 0 mm 3 mps 743 mmHg 10%
    20:00 +39°C° 0 mm 3 mps 744 mmHg 11%
    21:00 +39°C° 0 mm 3 mps 744 mmHg 14%
    22:00 +38°C° 0 mm 4 mps 744 mmHg 16%
    23:00 +37°C° 0 mm 4 mps 744 mmHg 18%

    Day after tomorrow, 22 September, Friday

    Time Temperature Precipitation Wind Pressure Humidity
    00:00 +36°C° 0 mm 4 mps 744 mmHg 22%
    01:00 +36°C° 0 mm 4 mps 744 mmHg 25%
    02:00 +35°C° 0 mm 3 mps 744 mmHg 28%
    03:00 +34°C° 0 mm 3 mps 744 mmHg 28%
    04:00 +34°C° 0 mm 2 mps 744 mmHg 28%
    05:00 +32°C° 0 mm 2 mps 744 mmHg 29%
    06:00 +34°C° 0 mm 2 mps 745 mmHg 27%
    07:00 +35°C° 0 mm 2 mps 746 mmHg 26%
    08:00 +36°C° 0 mm 2 mps 746 mmHg 24%
    09:00 +38°C° 0 mm 2 mps 747 mmHg 21%
    10:00 +40°C° 0 mm 2 mps 747 mmHg 18%
    11:00 +43°C° 0 mm 1 mps 747 mmHg 15%
    12:00 +45°C° 0 mm 2 mps 746 mmHg 14%
    13:00 +46°C° 0 mm 3 mps 745 mmHg 13%
    14:00 +47°C° 0 mm 3 mps 745 mmHg 12%
    15:00 +47°C° 0 mm 4 mps 745 mmHg 12%
    16:00 +45°C° 0 mm 4 mps 744 mmHg 13%
    17:00 +46°C° 0 mm 5 mps 744 mmHg 13%
    18:00 +45°C° 0 mm 5 mps 745 mmHg 15%
    19:00 +43°C° 0 mm 5 mps 745 mmHg 17%
    20:00 +42°C° 0 mm 5 mps 746 mmHg 19%
    21:00 +41°C° 0 mm 6 mps 746 mmHg 23%
    22:00 +39°C° 0 mm 6 mps 746 mmHg 28%
    23:00 +38°C° 0 mm 6 mps 746 mmHg 32%

    23 September, Saturday

    Time Temperature Precipitation Wind Pressure Humidity
    00:00 +36°C° 0 mm 6 mps 746 mmHg 36%
    01:00 +35°C° 0 mm 5 mps 746 mmHg 40%
    02:00 +34°C° 0 mm 5 mps 746 mmHg 44%
    03:00 +33°C° 0 mm 4 mps 746 mmHg 46%
    04:00 +31°C° 0 mm 3 mps 746 mmHg 48%
    05:00 +31°C° 0 mm 2 mps 747 mmHg 50%
    06:00 +31°C° 0 mm 2 mps 747 mmHg 49%
    07:00 +33°C° 0 mm 3 mps 748 mmHg 49%
    08:00 +33°C° 0 mm 3 mps 748 mmHg 48%
    09:00 +36°C° 0 mm 3 mps 748 mmHg 40%
    10:00 +38°C° 0 mm 2 mps 749 mmHg 33%
    11:00 +41°C° 0 mm 2 mps 749 mmHg 26%
    12:00 +42°C° 0 mm 2 mps 748 mmHg 22%
    13:00 +45°C° 0 mm 3 mps 747 mmHg 18%
    14:00 +46°C° 0 mm 3 mps 747 mmHg 14%
    15:00 +46°C° 0 mm 3 mps 747 mmHg 14%
    16:00 +45°C° 0 mm 4 mps 746 mmHg 14%
    17:00 +45°C° 0 mm 4 mps 746 mmHg 14%
    18:00 +43°C° 0 mm 5 mps 746 mmHg 16%
    19:00 +42°C° 0 mm 5 mps 747 mmHg 18%
    20:00 +41°C° 0 mm 5 mps 747 mmHg 20%
    21:00 +39°C° 0 mm 5 mps 747 mmHg 26%
    22:00 +37°C° 0 mm 5 mps 748 mmHg 31%
    23:00 +36°C° 0 mm 6 mps 748 mmHg 36%

    24 September, Sunday

    Time Temperature Precipitation Wind Pressure Humidity
    00:00 +35°C° 0 mm 5 mps 748 mmHg 39%
    01:00 +34°C° 0 mm 5 mps 747 mmHg 43%
    02:00 +33°C° 0 mm 5 mps 747 mmHg 47%
    03:00 +32°C° 0 mm 5 mps 747 mmHg 51%
    04:00 +30°C° 0 mm 4 mps 747 mmHg 54%
    05:00 +30°C° 0 mm 4 mps 747 mmHg 58%
    06:00 +30°C° 0 mm 4 mps 748 mmHg 57%
    07:00 +32°C° 0 mm 4 mps 748 mmHg 57%
    08:00 +32°C° 0 mm 4 mps 749 mmHg 56%
    09:00 +35°C° 0 mm 4 mps 749 mmHg 48%
    10:00 +37°C° 0 mm 4 mps 749 mmHg 39%
    11:00 +40°C° 0 mm 3 mps 749 mmHg 30%
    12:00 +42°C° 0 mm 3 mps 748 mmHg 25%
    13:00 +44°C° 0 mm 3 mps 747 mmHg 20%
    14:00 +45°C° 0 mm 3 mps 747 mmHg 15%
    15:00 +45°C° 0 mm 3 mps 746 mmHg 14%
    16:00 +45°C° 0 mm 4 mps 746 mmHg 13%
    17:00 +45°C° 0 mm 4 mps 746 mmHg 13%
    18:00 +43°C° 0 mm 4 mps 746 mmHg 16%
    19:00 +41°C° 0 mm 5 mps 747 mmHg 19%
    20:00 +39°C° 0 mm 5 mps 747 mmHg 22%
    21:00 +37°C° 0 mm 5 mps 747 mmHg 30%
    22:00 +36°C° 0 mm 6 mps 747 mmHg 37%
    23:00 +35°C° 0 mm 6 mps 747 mmHg 44%

    25 September, Monday

    Time Temperature Precipitation Wind Pressure Humidity
    00:00 +34°C° 0 mm 6 mps 747 mmHg 48%
    01:00 +33°C° 0 mm 5 mps 747 mmHg 52%
    02:00 +32°C° 0 mm 5 mps 746 mmHg 55%
    03:00 +30°C° 0 mm 5 mps 747 mmHg 59%
    04:00 +30°C° 0 mm 4 mps 747 mmHg 63%
    05:00 +29°C° 0 mm 4 mps 747 mmHg 66%
    06:00 +29°C° 0 mm 4 mps 747 mmHg 65%
    07:00 +30°C° 0 mm 4 mps 748 mmHg 64%
    08:00 +30°C° 0 mm 4 mps 748 mmHg 63%
    09:00 +34°C° 0 mm 4 mps 748 mmHg 54%
    10:00 +36°C° 0 mm 4 mps 748 mmHg 45%
    11:00 +38°C° 0 mm 3 mps 748 mmHg 36%
    12:00 +40°C° 0 mm 3 mps 748 mmHg 31%
    13:00 +42°C° 0 mm 3 mps 747 mmHg 26%
    14:00 +43°C° 0 mm 2 mps 746 mmHg 20%
    15:00 +43°C° 0 mm 2 mps 746 mmHg 19%
    16:00 +43°C° 0 mm 2 mps 745 mmHg 17%
    17:00 +43°C° 0 mm 2 mps 745 mmHg 16%
    18:00 +42°C° 0 mm 3 mps 745 mmHg 19%
    19:00 +40°C° 0 mm 3 mps 746 mmHg 21%
    20:00 +38°C° 0 mm 4 mps 746 mmHg 24%
    21:00 +37°C° 0 mm 4 mps 746 mmHg 30%
    22:00 +36°C° 0 mm 5 mps 746 mmHg 37%
    23:00 +35°C° 0 mm 6 mps 746 mmHg 44%
    Show more